Weather History for Bellefontaine, OH

Change the Weather History Date:

Wednesday, January 16, 2013

  Actual Average (KDAY) Record (KDAY)
Temperature  
Mean Temperature 29 °F 27 °F  
Max Temperature 32 °F 34 °F 59 °F (1990)
Min Temperature 26 °F 20 °F -17 °F (1977)
Degree Days  
Heating Degree Days 36 38  
Month to date heating degree days 602  
Since 1 July heating degree days 2761  
Cooling Degree Days 0 0  
Month to date cooling degree days 0  
Year to date cooling degree days 0  
Moisture  
Dew Point 26 °F    
Average Humidity 86    
Maximum Humidity 100    
Minimum Humidity 69    
Precipitation  
Precipitation 0.00 in 0.08 in 0.69 in (1924)
Month to date precipitation 1.49  
Year to date precipitation 1.49  
Snow  
Snow 0.00 in 0.30 in 7.10 in (1994)
Month to date snowfall 4.0  
Since 1 July snowfall 9.5  
Snow Depth -    
Sea Level Pressure  
Sea Level Pressure 29.96 in    
Wind  
Wind Speed 6 mph (WSW)    
Max Wind Speed 16 mph    
Max Gust Speed 22 mph    
Visibility 9 miles    
Events      
T = Trace of Precipitation, MM = Missing Value Source: NWS Daily Summary

Daily Weather History Graph

Daily Weather History Graph

Search for Another Location

Airport:

Trip Planner

Search our weather history database for the weather conditions in past years. The results will help you decide how hot, cold, wet, or windy it might be!

Date:

Astronomy

Jan. 16, 2013 Rise Set
Actual Time 7:55 AM EST 5:34 PM EST
Civil Twilight 7:25 AM EST 6:04 PM EST
Nautical Twilight 6:52 AM EST 6:38 PM EST
Astronomical Twilight 6:19 AM EST 7:10 PM EST
Moon 10:30 AM EST (1/16) 11:26 PM EST (1/16)
Length of Visible Light 10h 38m
Length of Day
9h 39m
Waxing Crescent, 28% of the Moon is Illuminated
Jan 16
Waxing Crescent
Jan 18
First Quarter
Jan 26
Full
Feb 3
Last Quarter
Feb 10
New

Hourly Weather History & Observations

Time (EST) Temp. Windchill Dew Point Humidity Pressure Visibility Wind Dir Wind Speed Gust Speed Precip Events Conditions
12:15 AM 28.4 °F 23.3 °F 26.6 °F 93% 30.05 in 10.0 mi NE 4.6 mph - 0.00 in   Overcast
12:35 AM 28.4 °F 22.2 °F 26.6 °F 93% 30.04 in 10.0 mi NNE 5.8 mph - 0.00 in   Overcast
1:15 AM 28.4 °F 21.2 °F 26.6 °F 93% 30.01 in 10.0 mi NE 6.9 mph - 0.00 in   Mostly Cloudy
1:35 AM 28.4 °F 23.3 °F 26.6 °F 93% 30.01 in 10.0 mi NNE 4.6 mph - 0.00 in   Clear
1:55 AM 28.4 °F 24.6 °F 26.6 °F 93% 30.01 in 10.0 mi NNE 3.5 mph - 0.00 in   Partly Cloudy
2:15 AM 28.4 °F 24.6 °F 26.6 °F 93% 30.02 in 10.0 mi North 3.5 mph - 0.00 in   Mostly Cloudy
2:35 AM 28.4 °F 23.3 °F 26.6 °F 93% 30.03 in 10.0 mi NNW 4.6 mph - 0.00 in   Scattered Clouds
2:55 AM 28.4 °F 23.3 °F 26.6 °F 93% 30.02 in 10.0 mi NNE 4.6 mph - 0.00 in   Clear
3:15 AM 28.4 °F 24.6 °F 26.6 °F 93% 30.00 in 10.0 mi NE 3.5 mph - 0.00 in   Clear
3:35 AM 28.4 °F 24.6 °F 26.6 °F 93% 29.99 in 10.0 mi NE 3.5 mph - 0.00 in   Clear
3:55 AM 28.4 °F 24.6 °F 26.6 °F 93% 29.96 in 10.0 mi East 3.5 mph - 0.00 in   Clear
4:15 AM 28.4 °F - 26.6 °F 93% 29.97 in 10.0 mi Calm Calm - 0.00 in   Clear
4:35 AM 28.4 °F 24.6 °F 26.6 °F 93% 29.97 in 10.0 mi NNW 3.5 mph - 0.00 in   Clear
4:55 AM 28.4 °F 24.6 °F 28.4 °F 100% 29.97 in 10.0 mi NW 3.5 mph - 0.00 in   Clear
5:15 AM 28.4 °F - 28.4 °F 100% 29.97 in 10.0 mi Calm Calm - 0.00 in   Clear
5:35 AM 28.4 °F 24.6 °F 26.6 °F 93% 29.96 in 10.0 mi NW 3.5 mph - 0.00 in   Clear
5:55 AM 26.6 °F 22.6 °F 26.6 °F 100% 29.95 in 10.0 mi NNW 3.5 mph - 0.00 in   Clear
6:15 AM 26.6 °F - 26.6 °F 100% 29.96 in 9.0 mi Calm Calm - 0.00 in   Clear
7:35 AM 26.6 °F - 26.6 °F 100% 29.95 in 7.0 mi Calm Calm - 0.00 in   Mostly Cloudy
7:55 AM 26.6 °F - 26.6 °F 100% 29.94 in 6.0 mi Calm Calm - 0.00 in   Partly Cloudy
8:15 AM 26.6 °F - 26.6 °F 100% 29.94 in 4.0 mi Calm Calm - 0.00 in   Clear
8:35 AM 26.6 °F - 26.6 °F 100% 29.93 in 5.0 mi Calm Calm - 0.00 in   Clear
8:55 AM - - - N/A% 29.96 in 5.0 mi Calm Calm - 0.00 in   Clear
9:15 AM 28.4 °F - 28.4 °F 100% 29.96 in 5.0 mi Calm Calm - 0.00 in   Clear
9:35 AM 28.4 °F - 28.4 °F 100% 29.95 in 5.0 mi Calm Calm - 0.00 in   Clear
9:55 AM 28.4 °F 22.2 °F 28.4 °F 100% 29.96 in 6.0 mi SW 5.8 mph - 0.00 in   Clear
10:15 AM 28.4 °F 21.2 °F 28.4 °F 100% 29.96 in 7.0 mi SW 6.9 mph - 0.00 in   Clear
10:35 AM 30.2 °F 21.3 °F 28.4 °F 93% 29.96 in 8.0 mi SW 10.4 mph - 0.00 in   Clear
10:55 AM 30.2 °F 22.6 °F 28.4 °F 93% 29.97 in 8.0 mi SW 8.1 mph - 0.00 in   Partly Cloudy
11:15 AM 30.2 °F 20.8 °F 28.4 °F 93% 29.96 in 8.0 mi SW 11.5 mph - 0.00 in   Partly Cloudy
11:35 AM 30.2 °F 21.3 °F 28.4 °F 93% 29.95 in 8.0 mi West 10.4 mph - 0.00 in   Partly Cloudy
11:55 AM 32.0 °F 24.8 °F 28.4 °F 87% 29.95 in 9.0 mi West 8.1 mph - 0.00 in   Scattered Clouds
12:15 PM 32.0 °F 22.5 °F 28.4 °F 87% 29.94 in 8.0 mi West 12.7 mph 16.1 mph 0.00 in   Mostly Cloudy
12:35 PM 32.0 °F 23.6 °F 28.4 °F 87% 29.92 in 8.0 mi West 10.4 mph - 0.00 in   Partly Cloudy
12:55 PM 32.0 °F 23.0 °F 26.6 °F 80% 29.92 in 10.0 mi WSW 11.5 mph - 0.00 in   Clear
1:15 PM 32.0 °F 24.8 °F 28.4 °F 87% 29.91 in 9.0 mi WSW 8.1 mph - 0.00 in   Clear
1:35 PM 32.0 °F 24.2 °F 26.6 °F 80% 29.91 in 10.0 mi WSW 9.2 mph - 0.00 in   Clear
1:55 PM 32.0 °F 24.8 °F 26.6 °F 80% 29.90 in 10.0 mi WSW 8.1 mph - 0.00 in   Clear
2:15 PM 32.0 °F 23.6 °F 26.6 °F 80% 29.90 in 10.0 mi WSW 10.4 mph - 0.00 in   Clear
2:35 PM 32.0 °F 22.5 °F 26.6 °F 80% 29.90 in 10.0 mi SW 12.7 mph - 0.00 in   Clear
2:55 PM 32.0 °F 23.0 °F 24.8 °F 75% 29.90 in 10.0 mi SW 11.5 mph - 0.00 in   Clear
3:15 PM 32.0 °F 24.8 °F 23.0 °F 69% 29.90 in 10.0 mi SW 8.1 mph - 0.00 in   Clear
3:35 PM 32.0 °F 23.6 °F 24.8 °F 75% 29.90 in 10.0 mi SW 10.4 mph - 0.00 in   Clear
3:55 PM 32.0 °F 23.0 °F 26.6 °F 80% 29.90 in 10.0 mi SSW 11.5 mph - 0.00 in   Clear
4:15 PM 32.0 °F 22.5 °F 26.6 °F 80% 29.90 in 10.0 mi SSW 12.7 mph - 0.00 in   Clear
4:35 PM 32.0 °F 22.1 °F 26.6 °F 80% 29.91 in 10.0 mi SSW 13.8 mph - 0.00 in   Clear
4:55 PM 32.0 °F 23.0 °F 26.6 °F 80% 29.92 in 10.0 mi SW 11.5 mph - 0.00 in   Clear
5:15 PM 32.0 °F 22.5 °F 24.8 °F 75% 29.93 in 10.0 mi SW 12.7 mph - 0.00 in   Clear
5:35 PM 32.0 °F 23.6 °F 24.8 °F 75% 29.94 in 10.0 mi SW 10.4 mph - 0.00 in   Clear
5:55 PM 32.0 °F 23.0 °F 26.6 °F 80% 29.94 in 10.0 mi SSW 11.5 mph - 0.00 in   Clear
6:15 PM 32.0 °F 22.1 °F 26.6 °F 80% 29.95 in 10.0 mi SW 13.8 mph - 0.00 in   Clear
6:55 PM 32.0 °F 21.2 °F 24.8 °F 75% 29.95 in 10.0 mi SSW 16.1 mph - 0.00 in   Clear
7:15 PM 32.0 °F 22.5 °F 24.8 °F 75% 29.96 in 10.0 mi SW 12.7 mph - 0.00 in   Clear
7:35 PM 32.0 °F 21.6 °F 24.8 °F 75% 29.96 in 10.0 mi SSW 15.0 mph - 0.00 in   Clear
7:55 PM 32.0 °F 22.5 °F 23.0 °F 69% 29.97 in 10.0 mi SW 12.7 mph - 0.00 in   Clear
8:15 PM 32.0 °F 22.5 °F 23.0 °F 69% 29.96 in 10.0 mi SSW 12.7 mph - 0.00 in   Clear
8:35 PM 30.2 °F 19.8 °F 24.8 °F 80% 29.97 in 10.0 mi SSW 13.8 mph - 0.00 in   Clear
8:55 PM 32.0 °F 23.0 °F 23.0 °F 69% 29.97 in 10.0 mi SW 11.5 mph - 0.00 in   Clear
9:15 PM 32.0 °F 21.2 °F 24.8 °F 75% 29.98 in 10.0 mi SW 16.1 mph - 0.00 in   Clear
9:55 PM 32.0 °F 21.2 °F 24.8 °F 75% 29.99 in 10.0 mi SW 16.1 mph - 0.00 in   Clear
10:15 PM 32.0 °F 22.1 °F 24.8 °F 75% 29.99 in 10.0 mi SW 13.8 mph - 0.00 in   Mostly Cloudy
10:35 PM 32.0 °F 22.1 °F 24.8 °F 75% 30.00 in 10.0 mi SW 13.8 mph 21.9 mph 0.00 in   Overcast
10:55 PM 32.0 °F 23.6 °F 24.8 °F 75% 30.00 in 10.0 mi SW 10.4 mph 17.3 mph 0.00 in   Overcast
11:15 PM 32.0 °F 22.5 °F 23.0 °F 69% 30.00 in 10.0 mi WSW 12.7 mph - 0.00 in   Overcast
11:35 PM 32.0 °F 22.5 °F 24.8 °F 75% 30.01 in 10.0 mi WSW 12.7 mph - 0.00 in   Overcast
11:55 PM 32.0 °F 23.6 °F 24.8 °F 75% 30.00 in 10.0 mi West 10.4 mph - 0.00 in   Overcast